Tracking 19634 objects as of 21-May-2019
HD Live streaming from Space Station
objects crossing your sky now

HIMAWARI 1 (GMS 1)

Track HIMAWARI 1 (GMS 1) now!
HIMAWARI 1 (GMS 1) is classified as:


NORAD ID: 10143
Int'l Code: 1977-065A
Perigee: 36,020.2 km
Apogee: 36,146.9 km
Inclination: 12.3 °
Period: 1,450.9 minutes
Semi major axis: 42454 km
RCS: 4.3304 m2 (large)
Launch date: July 14, 1977
Source: Japan (JPN)
Launch site: AIR FORCE EASTERN TEST RANGE (AFETR)
aabbcc
Your satellite tracking list
Your tracking list is empty




NASA's NSSDC Master Catalog

Two Line Element Set (TLE):
1 10143U 77065A   19140.50648417 -.00000048 +00000-0 +00000-0 0  9997
2 10143 012.2967 319.1977 0014919 165.5278 200.9642 00.99246897095576
Source of the keplerian elements: AFSPC